SCP
1 1 1 0 0 0 0 0 0 1 1 1 1 1 1 1 1 0 1 1 0 0 0 0 0 0 0 0 0 0 0 0 0 0 0 0 0 -0 -0 0 -0 0 0
2 1 1 0 0 0 0 0 1 1 1 1 2 2 1 1 1 1 1 1 1 0 0 0 0 0 0 0 0 0 0 0 0 0 0 0 0 -0 -0 -0 -0 -0 0
2 2 1 1 0 0 2 1 1 1 1 1 2 1 1 0 0 1 1 1 1 0 0 0 0 0 0 0 0 0 0 0 0 0 0 0 0 0 0 -0 -0 -0 -0
2 2 1 1 1 1 0 1 1 1 0 2 2 1 1 0 1 1 1 0 0 0 0 0 0 0 0 0 0 0 0 0 0 0 0 0 0 0 0 0 -0 -0 0
2 1 1 1 2 1 1 1 1 1 1 2 1 1 1 0 1 1 0 0 0 0 0 0 0 0 0 0 0 0 0 0 0 0 0 0 0 -0 -0 -0 -0 -0 0
1 2 1 2 2 1 1 1 1 0 1 1 1 1 1 1 1 1 0 0 0 0 0 0 0 0 0 0 0 0 0 0 0 0 0 0 0 0 0 0 0 0 0
1 3 1 2 2 2 1 2 1 2 1 1 1 0 1 0 0 0 0 0 0 0 0 0 0 0 0 0 0 0 0 0 0 0 0 0 0 0 0 0 0 0 -0
1 3 1 2 2 1 1 2 2 1 1 1 1 0 0 0 0 0 0 0 0 0 -0 0 0 0 0 0 0 0 0 0 0 0 0 0 0 0 0 0 -0 -0 -0
2 2 1 2 2 1 1 2 2 1 1 1 0 0 0 0 0 0 0 0 0 0 0 0 0 0 0 0 0 0 0 0 0 0 0 0 0 0 -0 -0 -0 -0 -0
2 1 1 2 2 1 3 2 1 1 1 1 0 0 0 0 0 0 0 0 0 0 0 0 0 0 0 0 0 0 0 0 0 0 0 0 0 -0 -0 -0 -0 -0 -0
2 1 2 2 2 1 3 2 1 1 1 0 0 0 0 0 0 0 0 0 0 0 0 0 0 0 0 0 0 0 0 0 0 0 0 -0 -0 -0 -0 -0 -0 -0 -0
2 2 2 2 2 1 2 1 1 1 1 0 0 0 0 0 0 0 0 0 0 0 0 0 0 0 0 0 0 0 0 0 0 0 0 0 0 -0 -0 -0 -0 -0 -0
2 2 2 2 1 1 1 1 0 0 0 0 0 0 0 0 0 0 0 0 0 0 0 0 0 0 0 0 0 0 0 0 0 0 0 0 0 0 -0 -0 -0 0 -0
1 2 1 1 1 1 1 0 0 0 0 0 0 0 0 0 0 0 0 0 0 0 0 0 0 0 0 0 0 0 0 0 0 0 0 0 0 0 -0 -0 0 -0 0
1 1 1 1 1 1 0 0 0 0 0 0 0 0 0 0 0 0 0 0 0 0 0 0 0 0 0 0 0 0 0 0 0 0 0 0 0 0 0 0 0 0 -0
1 1 1 1 0 0 0 0 0 0 0 0 0 0 0 0 0 0 0 0 0 0 0 0 0 0 0 0 0 0 0 0 0 0 0 0 0 0 0 0 0 -0 -0
1 0 0 0 0 0 0 0 0 0 0 0 0 0 0 0 0 -0 -0 0 0 0 0 0 0 0 0 0 0 0 0 0 0 0 0 0 0 0 -0 0 0 -0 -0
0 0 0 0 0 0 0 0 0 0 0 0 0 0 0 0 -0 0 -0 -0 0 0 0 0 0 0 0 0 0 0 0 0 0 0 0 0 0 -0 0 0 0 -0 0
0 0 0 0 0 0 0 0 0 0 0 0 0 0 0 -0 -0 -0 0 0 0 0 0 0 0 0 0 0 0 0 0 0 0 0 0 0 -0 0 0 0 0 0 -0
0 0 0 0 0 0 0 0 0 0 0 0 0 0 0 0 -0 0 -0 -0 -0 0 0 0 0 0 0 0 0 0 0 0 0 0 0 0 0 0 0 0 0 -0 0
0 0 0 0 0 0 0 0 0 0 -0 0 0 0 0 0 -0 -0 0 0 -0 0 0 0 0 0 0 0 0 0 0 0 0 0 0 0 0 0 0 0 0 -0 0
0 0 0 0 0 0 0 0 0 -0 0 0 0 0 0 0 0 0 -0 0 0 -0 0 0 0 0 0 0 0 0 0 0 0 0 0 0 0 0 0 0 0 0 0
0 0 0 0 0 0 0 0 0 0 0 0 0 0 0 -0 0 0 0 0 -0 -0 -0 0 0 0 0 0 0 0 0 0 0 0 0 0 0 0 0 0 0 0 0
0 0 0 0 0 0 0 0 0 0 0 0 0 0 0 0 -0 0 0 0 0 0 0 0 0 0 0 0 0 0 0 0 0 0 0 0 0 0 0 0 -0 -0 0
0 0 0 0 0 0 0 0 0 0 0 0 0 0 0 0 0 0 0 0 0 0 -0 -0 -0 0 0 0 0 0 0 0 0 0 0 0 0 0 -0 -0 -0 0 0
0 0 0 0 0 -0 0 0 0 0 0 0 0 0 0 0 -0 0 0 0 0 0 0 0 0 0 0 0 0 0 0 0 0 0 0 0 0 0 0 0 0 -0 0
Wind_Speed_500mb
52 50 51 44 43 35 37 33 37 36 31 33 32 32 34 28 27 24 26 29 28 19 15 27 31 33 32 33 33 26 20 18 15 17 40 41 40 16 21 25 26 23 38
51 47 50 44 46 41 37 37 35 35 35 34 36 38 35 36 30 36 36 32 30 20 18 20 31 31 32 33 32 29 22 15 18 17 28 38 37 28 28 27 28 24 28
52 53 44 42 41 40 46 40 39 37 34 33 42 35 32 34 28 35 37 28 31 22 24 15 24 29 33 32 30 29 24 18 18 23 28 38 40 28 34 28 24 26 21
55 52 44 41 39 40 38 38 38 35 33 35 40 34 29 28 37 40 35 31 34 28 27 22 20 24 28 33 31 28 25 20 22 28 30 35 40 24 34 27 29 23 23
48 46 40 38 43 39 38 36 35 34 35 35 27 25 26 29 35 41 38 37 38 32 29 29 23 25 27 30 34 31 27 23 25 31 30 37 34 31 35 25 28 22 22
44 42 38 37 41 35 36 35 37 32 33 28 23 24 29 35 43 40 39 40 41 47 32 32 28 23 27 31 34 32 28 28 27 32 31 35 34 34 31 30 26 24 25
40 43 35 36 39 34 36 41 34 34 25 25 21 27 33 31 29 24 29 30 37 41 40 39 21 27 21 28 36 34 29 28 28 34 34 34 37 33 28 30 25 27 27
38 45 38 37 34 30 39 34 37 26 23 24 22 22 27 17 21 26 27 32 28 34 47 44 31 28 27 28 36 32 27 32 29 35 37 38 36 33 34 29 25 23 20
38 38 35 34 34 32 26 33 31 27 26 26 23 21 8 9 10 16 19 19 21 23 36 42 36 32 24 35 31 29 28 34 31 37 39 39 37 38 32 27 25 21 23
37 37 37 34 33 27 32 28 24 28 32 24 20 22 25 18 7 7 10 12 21 20 27 38 43 38 28 29 27 22 23 35 35 39 42 42 38 34 29 30 24 29 40
37 37 40 36 30 26 29 26 28 32 29 25 20 18 19 17 18 14 10 9 11 19 21 24 35 28 27 32 24 26 24 32 35 40 40 41 36 34 34 28 25 32 34
41 40 37 33 29 28 26 27 30 28 22 19 22 20 15 12 15 21 16 7 11 17 17 27 31 38 31 35 28 22 21 29 35 39 40 36 39 35 39 22 32 36 35
34 38 36 32 28 28 29 29 28 23 21 16 21 17 18 21 20 14 14 10 6 15 19 25 28 29 42 34 31 32 26 27 33 37 39 38 37 34 39 35 43 38 33
31 35 35 28 28 27 27 24 23 18 14 18 16 19 26 21 19 19 17 9 8 10 13 20 26 28 29 43 37 35 34 27 31 39 38 38 37 42 37 36 38 38 29
31 27 29 26 25 26 23 19 16 15 18 14 22 23 23 22 22 24 18 11 15 12 16 16 21 27 30 32 34 33 32 29 34 39 42 41 40 43 36 35 36 35 37
28 27 27 25 26 20 22 20 16 13 13 20 18 19 21 23 25 28 25 16 8 10 10 18 19 28 33 30 32 37 32 30 33 36 40 43 40 44 35 36 41 38 37
29 26 25 23 23 24 22 20 17 14 16 18 14 20 17 18 17 22 24 16 13 6 13 17 22 25 29 29 34 32 32 34 32 34 41 43 40 46 35 38 43 43 40
26 24 23 23 22 20 20 18 15 18 18 14 18 17 19 16 20 25 29 23 20 16 21 22 22 26 29 31 34 33 37 36 38 38 39 38 45 42 35 40 47 49 39
24 24 24 23 25 24 20 16 18 15 13 15 16 12 15 17 19 15 25 16 19 16 20 25 26 27 31 35 40 38 37 38 39 41 39 41 41 38 45 40 51 37 31
25 25 24 23 21 19 17 19 16 12 15 11 9 7 11 20 21 21 20 19 21 21 23 24 20 32 37 38 35 39 46 42 46 45 47 43 42 44 37 41 40 38 37
27 24 22 21 23 23 19 16 14 15 13 12 13 12 2 15 21 30 20 22 28 25 24 22 27 31 40 42 42 49 54 50 48 49 56 46 46 45 52 41 36 41 36
23 26 28 25 21 22 22 23 17 15 15 16 10 8 5 11 16 21 17 17 30 28 26 26 22 36 40 46 45 54 57 59 59 58 68 60 50 58 43 38 39 39 33
27 28 28 25 26 22 17 14 13 16 20 13 13 13 8 10 9 19 22 18 29 19 11 13 27 39 41 45 54 56 55 63 60 67 64 65 55 50 49 43 44 37 34
29 28 30 25 20 20 15 9 12 13 14 11 15 9 8 11 8 8 23 24 27 18 13 16 17 29 27 38 53 56 63 62 59 65 67 58 54 50 45 39 36 36 35
30 28 26 24 19 19 13 9 15 11 12 12 9 14 11 11 14 13 15 22 26 24 27 23 17 17 22 36 56 69 59 63 69 68 63 57 57 42 35 30 33 33 33
30 29 27 23 21 19 17 14 17 15 10 14 6 8 10 17 20 25 24 23 29 28 29 24 22 22 21 36 52 49 53 62 71 67 60 59 57 40 19 21 30 35 36
Wind_Direction_500mb
228 228 221 225 228 232 231 231 232 237 240 247 252 260 256 253 256 255 278 276 279 270 253 231 221 216 217 218 224 228 229 232 220 218 194 204 171 212 200 209 207 210 207
228 224 229 229 225 227 233 235 237 237 242 248 257 260 254 256 244 254 256 262 271 260 259 238 218 214 214 215 217 221 227 227 219 212 193 187 203 215 204 203 208 219 217
222 225 226 231 228 225 230 229 235 237 238 248 250 255 251 254 247 261 258 260 263 265 245 234 213 213 211 211 211 213 217 223 214 209 188 194 203 206 208 207 207 212 216
235 227 223 227 227 223 227 228 232 236 246 245 257 255 251 253 243 260 247 236 236 260 245 239 225 217 217 215 214 210 209 215 213 209 197 194 203 213 203 207 211 211 215
225 213 221 223 224 219 221 225 228 233 243 253 255 266 253 248 253 245 247 240 224 228 244 248 236 225 223 218 218 216 212 212 206 209 204 198 203 199 199 206 194 208 209
216 219 213 218 220 218 218 220 223 233 238 249 257 256 254 255 259 255 254 244 233 221 217 236 245 232 227 219 218 214 210 207 205 203 199 193 195 194 195 190 195 200 208
210 214 207 220 215 212 208 221 222 229 230 240 259 269 273 268 260 250 260 247 237 226 206 227 233 243 213 221 216 205 205 202 199 195 197 191 193 188 192 188 190 195 205
204 213 192 216 214 202 209 207 215 218 228 242 248 268 272 260 234 252 235 249 235 225 208 221 208 231 224 208 200 200 202 199 194 188 191 193 190 190 187 189 189 204 192
199 201 187 199 208 185 210 205 217 214 232 239 234 243 290 284 273 240 239 229 237 218 210 214 206 212 210 188 199 201 201 192 186 186 188 188 185 183 189 188 191 197 178
193 189 191 187 201 188 208 216 216 220 233 241 246 242 248 267 293 270 249 249 223 233 205 201 201 196 201 181 171 191 190 185 181 183 181 186 183 176 186 194 185 170 171
185 187 182 185 195 188 219 206 214 230 237 237 237 244 237 248 257 261 282 213 215 232 206 193 189 197 199 183 181 185 177 181 181 181 183 186 186 178 185 187 170 164 181
180 181 183 190 197 189 220 220 225 234 236 226 229 233 232 240 244 235 239 248 216 210 204 189 192 188 190 184 181 188 176 176 179 179 183 180 188 180 175 171 186 170 170
178 184 186 193 200 201 220 223 231 234 231 219 234 229 246 245 252 253 229 221 198 196 198 193 191 193 191 183 206 192 194 181 178 179 182 180 176 180 177 183 173 171 172
184 197 186 193 199 215 216 224 235 230 218 227 218 221 225 228 236 216 201 224 192 167 183 186 186 191 190 185 192 202 194 189 179 179 178 184 187 181 182 169 173 173 170
178 185 187 201 202 212 211 225 224 204 231 224 219 231 223 232 238 217 187 246 204 169 186 189 173 184 184 180 187 180 188 176 178 177 177 190 183 182 173 174 174 173 174
174 180 188 200 204 208 210 212 211 229 214 220 236 237 235 242 241 212 217 202 214 174 160 174 176 180 173 176 173 180 181 173 174 176 178 175 173 180 174 173 174 180 174
172 179 190 203 205 207 207 202 199 206 213 232 205 238 246 240 224 216 216 218 189 223 188 177 179 166 173 175 178 183 178 179 172 174 175 175 180 173 173 177 180 178 174
178 184 192 195 194 196 192 194 203 208 220 225 230 251 236 221 214 216 215 212 223 224 193 164 171 168 174 177 178 174 170 177 176 172 175 174 171 176 177 182 181 184 182
176 180 183 187 190 195 194 195 202 212 216 231 236 234 225 231 213 198 191 216 212 204 180 170 156 174 160 166 171 175 175 172 174 167 170 170 175 186 189 188 189 177 172
170 175 177 185 177 180 188 198 202 207 222 217 193 200 236 207 206 202 211 212 195 180 166 153 161 167 158 171 175 174 171 170 165 164 166 166 177 196 191 184 183 175 174
178 177 169 163 178 189 183 199 206 215 198 169 190 127 146 205 211 201 203 193 181 155 154 156 171 169 171 170 175 173 168 164 166 172 174 167 185 187 180 183 186 175 172
172 164 173 170 169 178 195 209 221 188 171 190 168 144 89 143 178 192 202 188 170 191 177 176 167 174 174 176 178 170 171 163 160 184 168 173 189 176 180 179 178 179 180
174 173 176 175 176 182 184 191 188 162 191 179 162 178 124 120 148 190 195 175 173 185 170 170 175 177 180 183 183 179 174 172 166 172 181 167 176 179 178 180 186 191 194
178 176 174 171 169 175 186 185 181 180 168 178 178 193 177 120 152 148 179 179 177 169 165 147 182 194 192 193 191 184 180 175 165 166 181 165 178 182 180 195 194 201 207
174 169 163 166 161 183 189 181 162 165 176 152 172 193 204 197 180 153 162 164 163 173 170 175 194 178 196 185 188 180 179 171 166 170 176 176 176 182 196 208 212 217 219
171 162 166 170 175 188 197 179 170 161 154 143 159 191 211 221 219 184 172 174 174 174 176 172 152 147 141 167 187 184 180 176 172 171 182 182 176 171 190 214 236 222 222
Wind_Speed_850mb
52 50 51 44 43 35 37 33 37 36 31 33 32 32 34 28 27 24 26 29 28 19 15 27 31 33 32 33 33 26 20 18 15 17 40 41 40 16 21 25 26 23 38
51 47 50 44 46 41 37 37 35 35 35 34 36 38 35 36 30 36 36 32 30 20 18 20 31 31 32 33 32 29 22 15 18 17 28 38 37 28 28 27 28 24 28
52 53 44 42 41 40 46 40 39 37 34 33 42 35 32 34 28 35 37 28 31 22 24 15 24 29 33 32 30 29 24 18 18 23 28 38 40 28 34 28 24 26 21
55 52 44 41 39 40 38 38 38 35 33 35 40 34 29 28 37 40 35 31 34 28 27 22 20 24 28 33 31 28 25 20 22 28 30 35 40 24 34 27 29 23 23
48 46 40 38 43 39 38 36 35 34 35 35 27 25 26 29 35 41 38 37 38 32 29 29 23 25 27 30 34 31 27 23 25 31 30 37 34 31 35 25 28 22 22
44 42 38 37 41 35 36 35 37 32 33 28 23 24 29 35 43 40 39 40 41 47 32 32 28 23 27 31 34 32 28 28 27 32 31 35 34 34 31 30 26 24 25
40 43 35 36 39 34 36 41 34 34 25 25 21 27 33 31 29 24 29 30 37 41 40 39 21 27 21 28 36 34 29 28 28 34 34 34 37 33 28 30 25 27 27
38 45 38 37 34 30 39 34 37 26 23 24 22 22 27 17 21 26 27 32 28 34 47 44 31 28 27 28 36 32 27 32 29 35 37 38 36 33 34 29 25 23 20
38 38 35 34 34 32 26 33 31 27 26 26 23 21 8 9 10 16 19 19 21 23 36 42 36 32 24 35 31 29 28 34 31 37 39 39 37 38 32 27 25 21 23
37 37 37 34 33 27 32 28 24 28 32 24 20 22 25 18 7 7 10 12 21 20 27 38 43 38 28 29 27 22 23 35 35 39 42 42 38 34 29 30 24 29 40
37 37 40 36 30 26 29 26 28 32 29 25 20 18 19 17 18 14 10 9 11 19 21 24 35 28 27 32 24 26 24 32 35 40 40 41 36 34 34 28 25 32 34
41 40 37 33 29 28 26 27 30 28 22 19 22 20 15 12 15 21 16 7 11 17 17 27 31 38 31 35 28 22 21 29 35 39 40 36 39 35 39 22 32 36 35
34 38 36 32 28 28 29 29 28 23 21 16 21 17 18 21 20 14 14 10 6 15 19 25 28 29 42 34 31 32 26 27 33 37 39 38 37 34 39 35 43 38 33
31 35 35 28 28 27 27 24 23 18 14 18 16 19 26 21 19 19 17 9 8 10 13 20 26 28 29 43 37 35 34 27 31 39 38 38 37 42 37 36 38 38 29
31 27 29 26 25 26 23 19 16 15 18 14 22 23 23 22 22 24 18 11 15 12 16 16 21 27 30 32 34 33 32 29 34 39 42 41 40 43 36 35 36 35 37
28 27 27 25 26 20 22 20 16 13 13 20 18 19 21 23 25 28 25 16 8 10 10 18 19 28 33 30 32 37 32 30 33 36 40 43 40 44 35 36 41 38 37
29 26 25 23 23 24 22 20 17 14 16 18 14 20 17 18 17 22 24 16 13 6 13 17 22 25 29 29 34 32 32 34 32 34 41 43 40 46 35 38 43 43 40
26 24 23 23 22 20 20 18 15 18 18 14 18 17 19 16 20 25 29 23 20 16 21 22 22 26 29 31 34 33 37 36 38 38 39 38 45 42 35 40 47 49 39
24 24 24 23 25 24 20 16 18 15 13 15 16 12 15 17 19 15 25 16 19 16 20 25 26 27 31 35 40 38 37 38 39 41 39 41 41 38 45 40 51 37 31
25 25 24 23 21 19 17 19 16 12 15 11 9 7 11 20 21 21 20 19 21 21 23 24 20 32 37 38 35 39 46 42 46 45 47 43 42 44 37 41 40 38 37
27 24 22 21 23 23 19 16 14 15 13 12 13 12 2 15 21 30 20 22 28 25 24 22 27 31 40 42 42 49 54 50 48 49 56 46 46 45 52 41 36 41 36
23 26 28 25 21 22 22 23 17 15 15 16 10 8 5 11 16 21 17 17 30 28 26 26 22 36 40 46 45 54 57 59 59 58 68 60 50 58 43 38 39 39 33
27 28 28 25 26 22 17 14 13 16 20 13 13 13 8 10 9 19 22 18 29 19 11 13 27 39 41 45 54 56 55 63 60 67 64 65 55 50 49 43 44 37 34
29 28 30 25 20 20 15 9 12 13 14 11 15 9 8 11 8 8 23 24 27 18 13 16 17 29 27 38 53 56 63 62 59 65 67 58 54 50 45 39 36 36 35
30 28 26 24 19 19 13 9 15 11 12 12 9 14 11 11 14 13 15 22 26 24 27 23 17 17 22 36 56 69 59 63 69 68 63 57 57 42 35 30 33 33 33
30 29 27 23 21 19 17 14 17 15 10 14 6 8 10 17 20 25 24 23 29 28 29 24 22 22 21 36 52 49 53 62 71 67 60 59 57 40 19 21 30 35 36
Wind_Direction_850mb
228 228 221 225 228 232 231 231 232 237 240 247 252 260 256 253 256 255 278 276 279 270 253 231 221 216 217 218 224 228 229 232 220 218 194 204 171 212 200 209 207 210 207
228 224 229 229 225 227 233 235 237 237 242 248 257 260 254 256 244 254 256 262 271 260 259 238 218 214 214 215 217 221 227 227 219 212 193 187 203 215 204 203 208 219 217
222 225 226 231 228 225 230 229 235 237 238 248 250 255 251 254 247 261 258 260 263 265 245 234 213 213 211 211 211 213 217 223 214 209 188 194 203 206 208 207 207 212 216
235 227 223 227 227 223 227 228 232 236 246 245 257 255 251 253 243 260 247 236 236 260 245 239 225 217 217 215 214 210 209 215 213 209 197 194 203 213 203 207 211 211 215
225 213 221 223 224 219 221 225 228 233 243 253 255 266 253 248 253 245 247 240 224 228 244 248 236 225 223 218 218 216 212 212 206 209 204 198 203 199 199 206 194 208 209
216 219 213 218 220 218 218 220 223 233 238 249 257 256 254 255 259 255 254 244 233 221 217 236 245 232 227 219 218 214 210 207 205 203 199 193 195 194 195 190 195 200 208
210 214 207 220 215 212 208 221 222 229 230 240 259 269 273 268 260 250 260 247 237 226 206 227 233 243 213 221 216 205 205 202 199 195 197 191 193 188 192 188 190 195 205
204 213 192 216 214 202 209 207 215 218 228 242 248 268 272 260 234 252 235 249 235 225 208 221 208 231 224 208 200 200 202 199 194 188 191 193 190 190 187 189 189 204 192
199 201 187 199 208 185 210 205 217 214 232 239 234 243 290 284 273 240 239 229 237 218 210 214 206 212 210 188 199 201 201 192 186 186 188 188 185 183 189 188 191 197 178
193 189 191 187 201 188 208 216 216 220 233 241 246 242 248 267 293 270 249 249 223 233 205 201 201 196 201 181 171 191 190 185 181 183 181 186 183 176 186 194 185 170 171
185 187 182 185 195 188 219 206 214 230 237 237 237 244 237 248 257 261 282 213 215 232 206 193 189 197 199 183 181 185 177 181 181 181 183 186 186 178 185 187 170 164 181
180 181 183 190 197 189 220 220 225 234 236 226 229 233 232 240 244 235 239 248 216 210 204 189 192 188 190 184 181 188 176 176 179 179 183 180 188 180 175 171 186 170 170
178 184 186 193 200 201 220 223 231 234 231 219 234 229 246 245 252 253 229 221 198 196 198 193 191 193 191 183 206 192 194 181 178 179 182 180 176 180 177 183 173 171 172
184 197 186 193 199 215 216 224 235 230 218 227 218 221 225 228 236 216 201 224 192 167 183 186 186 191 190 185 192 202 194 189 179 179 178 184 187 181 182 169 173 173 170
178 185 187 201 202 212 211 225 224 204 231 224 219 231 223 232 238 217 187 246 204 169 186 189 173 184 184 180 187 180 188 176 178 177 177 190 183 182 173 174 174 173 174
174 180 188 200 204 208 210 212 211 229 214 220 236 237 235 242 241 212 217 202 214 174 160 174 176 180 173 176 173 180 181 173 174 176 178 175 173 180 174 173 174 180 174
172 179 190 203 205 207 207 202 199 206 213 232 205 238 246 240 224 216 216 218 189 223 188 177 179 166 173 175 178 183 178 179 172 174 175 175 180 173 173 177 180 178 174
178 184 192 195 194 196 192 194 203 208 220 225 230 251 236 221 214 216 215 212 223 224 193 164 171 168 174 177 178 174 170 177 176 172 175 174 171 176 177 182 181 184 182
176 180 183 187 190 195 194 195 202 212 216 231 236 234 225 231 213 198 191 216 212 204 180 170 156 174 160 166 171 175 175 172 174 167 170 170 175 186 189 188 189 177 172
170 175 177 185 177 180 188 198 202 207 222 217 193 200 236 207 206 202 211 212 195 180 166 153 161 167 158 171 175 174 171 170 165 164 166 166 177 196 191 184 183 175 174
178 177 169 163 178 189 183 199 206 215 198 169 190 127 146 205 211 201 203 193 181 155 154 156 171 169 171 170 175 173 168 164 166 172 174 167 185 187 180 183 186 175 172
172 164 173 170 169 178 195 209 221 188 171 190 168 144 89 143 178 192 202 188 170 191 177 176 167 174 174 176 178 170 171 163 160 184 168 173 189 176 180 179 178 179 180
174 173 176 175 176 182 184 191 188 162 191 179 162 178 124 120 148 190 195 175 173 185 170 170 175 177 180 183 183 179 174 172 166 172 181 167 176 179 178 180 186 191 194
178 176 174 171 169 175 186 185 181 180 168 178 178 193 177 120 152 148 179 179 177 169 165 147 182 194 192 193 191 184 180 175 165 166 181 165 178 182 180 195 194 201 207
174 169 163 166 161 183 189 181 162 165 176 152 172 193 204 197 180 153 162 164 163 173 170 175 194 178 196 185 188 180 179 171 166 170 176 176 176 182 196 208 212 217 219
171 162 166 170 175 188 197 179 170 161 154 143 159 191 211 221 219 184 172 174 174 174 176 172 152 147 141 167 187 184 180 176 172 171 182 182 176 171 190 214 236 222 222